Location: Castellare
(42.4669°N, 9.4728°E)
Time: 15:12:52
(UTC+00:00)

Cosmos 2100 Rocket - Pass Details

Date: 17 February 2020
Orbit: 955 x 1002 km, 82.9° (Epoch: 28 March)

Event Time Altitude Azimuth Distance (km) Brightness Sun altitude
Rises 04:54:08 0° 351° (N) 3,684 6.9 -15.9°
Reaches altitude 10° 04:56:40 10° 351° (N) 2,726 6.2 -15.4°
Maximum altitude 05:02:54 83° 264° (W) 977 3.9 -14.3°
Drops below altitude 10° 05:09:03 10° 178° (S) 2,682 6.4 -13.1°
Sets 05:11:31 0° 177° (S) 3,620 7.1 -12.7°
